| time (UTC) | temp F | wind direction | speed MPH | gust MPH | rain 1hr in | rain 24hr in | rain mn in | humidity % | barometer mb |
| 20260506050108 | 39 | 105 | 4.0 | 0.0 | 0.00 | 0.00 | 0.00 | 75 | 1003.8 |
| 20260506044558 | 39 | 131 | 0.0 | 0.0 | 0.00 | 0.00 | 0.00 | 76 | 1003.6 |
| 20260506043057 | 39 | 135 | 0.0 | 0.0 | 0.00 | 0.00 | 0.00 | 78 | 1003.6 |
| 20260506041602 | 38 | 134 | 1.0 | 0.0 | 0.00 | 0.00 | 0.00 | 78 | 1003.6 |
| 20260506040052 | 38 | 68 | 2.0 | 0.0 | 0.00 | 0.00 | 0.00 | 78 | 1003.4 |
| 20260506034558 | 38 | 72 | 1.0 | 0.0 | 0.00 | 0.00 | 0.00 | 78 | 1003.2 |
| 20260506033051 | 38 | 51 | 0.0 | 0.0 | 0.00 | 0.00 | 0.00 | 79 | 1003.2 |
| 20260506031549 | 37 | 50 | 0.0 | 0.0 | 0.00 | 0.00 | 0.00 | 80 | 1003.2 |
| 20260506030048 | 37 | 46 | 0.0 | 0.0 | 0.00 | 0.00 | 0.00 | 80 | 1002.9 |
| 20260506024557 | 37 | 46 | 0.0 | 0.0 | 0.00 | 0.00 | 0.00 | 80 | 1002.8 |
| 20260506023045 | 37 | 46 | 0.0 | 0.0 | 0.00 | 0.00 | 0.00 | 80 | 1002.6 |
| 20260506021544 | 37 | 46 | 0.0 | 0.0 | 0.00 | 0.00 | 0.00 | 81 | 1002.6 |
| 20260506020048 | 37 | 44 | 0.0 | 0.0 | 0.00 | 0.00 | 0.00 | 81 | 1002.5 |
| 20260506014541 | 37 | 44 | 0.0 | 0.0 | 0.00 | 0.00 | 0.00 | 81 | 1002.5 |
| 20260506013039 | 37 | 44 | 0.0 | 0.0 | 0.00 | 0.00 | 0.00 | 80 | 1002.2 |
| 20260506011600 | 37 | 44 | 0.0 | 0.0 | 0.00 | 0.00 | 0.00 | 79 | 1002.3 |
| 20260506010035 | 38 | 44 | 0.0 | 0.0 | 0.00 | 0.00 | 0.00 | 79 | 1002.1 |
| 20260506004542 | 38 | 44 | 1.0 | 0.0 | 0.00 | 0.00 | 0.00 | 79 | 1001.9 |
| 20260506003031 | 38 | 41 | 1.0 | 0.0 | 0.00 | 0.00 | 0.00 | 81 | 1001.7 |
| 20260506001529 | 38 | 42 | 2.0 | 0.0 | 0.00 | 0.00 | 0.00 | 81 | 1001.8 |
| 20260506000045 | 38 | 44 | 2.0 | 0.0 | 0.00 | 0.00 | 0.00 | 81 | 1001.7 |
| 20260505234539 | 38 | 53 | 2.0 | 0.0 | 0.00 | 0.00 | 0.00 | 81 | 1001.6 |
| 20260505233027 | 38 | 61 | 3.0 | 0.0 | 0.00 | 0.00 | 0.00 | 81 | 1001.6 |
| 20260505231522 | 38 | 61 | 2.0 | 0.0 | 0.00 | 0.00 | 0.00 | 80 | 1001.4 |
| 20260505230044 | 39 | 48 | 2.0 | 0.0 | 0.00 | 0.00 | 0.00 | 80 | 1001.4 |
| 20260505224533 | 39 | 63 | 2.0 | 0.0 | 0.00 | 0.00 | 0.00 | 79 | 1001.3 |
| 20260505223022 | 39 | 67 | 2.0 | 0.0 | 0.00 | 0.00 | 0.00 | 79 | 1001.3 |
| 20260505221514 | 39 | 53 | 2.0 | 0.0 | 0.00 | 0.00 | 0.00 | 78 | 1001.2 |
| 20260505220011 | 39 | 53 | 1.0 | 0.0 | 0.00 | 0.00 | 0.38 | 78 | 1001.2 |
| 20260505214514 | 39 | 53 | 1.0 | 0.0 | 0.00 | 0.00 | 0.38 | 77 | 1001.2 |
| 20260505213009 | 40 | 53 | 2.0 | 0.0 | 0.00 | 0.00 | 0.38 | 76 | 1001.0 |
| 20260505211516 | 40 | 49 | 2.0 | 0.0 | 0.00 | 0.00 | 0.38 | 76 | 1001.1 |
| 20260505210007 | 40 | 38 | 1.0 | 0.0 | 0.00 | 0.00 | 0.38 | 76 | 1000.9 |
| 20260505204506 | 40 | 37 | 1.0 | 0.0 | 0.00 | 0.00 | 0.38 | 76 | 1000.8 |
| 20260505203009 | 40 | 37 | 0.0 | 0.0 | 0.00 | 0.00 | 0.38 | 75 | 1000.6 |
| 20260505201505 | 41 | 36 | 1.0 | 0.0 | 0.00 | 0.00 | 0.38 | 75 | 1000.7 |
| 20260505200004 | 41 | 36 | 2.0 | 0.0 | 0.00 | 0.00 | 0.38 | 74 | 1000.6 |
| 20260505194504 | 41 | 30 | 1.0 | 0.0 | 0.00 | 0.00 | 0.38 | 72 | 1000.5 |
| 20260505193003 | 42 | 31 | 2.0 | 0.0 | 0.00 | 0.00 | 0.38 | 69 | 1000.4 |
| 20260505191503 | 42 | 227 | 0.0 | 0.0 | 0.00 | 0.00 | 0.38 | 67 | 1000.5 |
| 20260505190001 | 42 | 227 | 0.0 | 0.0 | 0.00 | 0.00 | 0.38 | 65 | 1000.5 |
| 20260505184505 | 42 | 227 | 0.0 | 0.0 | 0.00 | 0.00 | 0.38 | 64 | 1000.3 |
| 20260505183100 | 43 | 227 | 0.0 | 0.0 | 0.00 | 0.00 | 0.38 | 64 | 1000.3 |
| 20260505181558 | 43 | 227 | 0.0 | 0.0 | 0.00 | 0.00 | 0.38 | 63 | 1000.1 |
| 20260505174558 | 44 | 227 | 1.0 | 0.0 | 0.00 | 0.00 | 0.38 | 61 | 1000.0 |
| 20260505173113 | 45 | 228 | 2.0 | 0.0 | 0.00 | 0.00 | 0.38 | 57 | 1000.0 |
| 20260505171623 | 44 | 223 | 1.0 | 0.0 | 0.00 | 0.00 | 0.38 | 59 | 1000.0 |
| 20260505170055 | 44 | 228 | 1.0 | 0.0 | 0.00 | 0.00 | 0.38 | 61 | 999.9 |
| 20260505164601 | 44 | 236 | 2.0 | 0.0 | 0.00 | 0.00 | 0.38 | 59 | 999.8 |
| 20260505163054 | 45 | 252 | 3.0 | 0.0 | 0.00 | 0.00 | 0.38 | 59 | 999.8 |
| 20260505161555 | 46 | 236 | 2.0 | 0.0 | 0.00 | 0.00 | 0.38 | 55 | 999.6 |
| 20260505153047 | 46 | 283 | 1.0 | 0.0 | 0.00 | 0.00 | 0.38 | 57 | 999.6 |
| 20260505151545 | 45 | 248 | 2.0 | 0.0 | 0.00 | 0.00 | 0.37 | 56 | 999.6 |
| 20260505150105 | 46 | 242 | 1.0 | 0.0 | 0.00 | 0.00 | 0.37 | 56 | 999.6 |
| 20260505124525 | 43 | 242 | 4.0 | 0.0 | 0.00 | 0.00 | 0.33 | 78 | 999.4 |
| 20260505123014 | 42 | 296 | 3.0 | 0.0 | 0.00 | 0.00 | 0.31 | 84 | 999.2 |
| 20260505121523 | 39 | 294 | 2.0 | 0.0 | 0.00 | 0.00 | 0.30 | 87 | 999.3 |
| 20260505120009 | 39 | 290 | 3.0 | 0.0 | 0.00 | 0.00 | 0.28 | 89 | 999.3 |
| 20260505114508 | 38 | 288 | 4.0 | 0.0 | 0.00 | 0.00 | 0.28 | 87 | 999.2 |
| 20260505113008 | 38 | 236 | 5.0 | 0.0 | 0.00 | 0.00 | 0.28 | 86 | 999.0 |
| 20260505111504 | 40 | 241 | 3.0 | 0.0 | 0.00 | 0.00 | 0.26 | 87 | 998.7 |
| 20260505101600 | 39 | 271 | 0.0 | 0.0 | 0.00 | 0.00 | 0.19 | 92 | 998.3 |
| 20260505100137 | 37 | 290 | 0.0 | 0.0 | 0.00 | 0.00 | 0.18 | 91 | 998.3 |
| 20260505094558 | 36 | 296 | 1.0 | 0.0 | 0.00 | 0.00 | 0.16 | 92 | 998.3 |
| 20260505093057 | 35 | 300 | 3.0 | 0.0 | 0.00 | 0.00 | 0.14 | 91 | 998.4 |
| 20260505091617 | 35 | 264 | 3.0 | 0.0 | 0.00 | 0.00 | 0.12 | 90 | 998.6 |
| 20260505090101 | 37 | 248 | 3.0 | 0.0 | 0.00 | 0.00 | 0.10 | 89 | 998.1 |
| 20260505084552 | 37 | 248 | 1.0 | 0.0 | 0.00 | 0.00 | 0.07 | 91 | 997.9 |
| 20260505083053 | 37 | 190 | 0.0 | 0.0 | 0.00 | 0.00 | 0.06 | 92 | 997.9 |
| 20260505081551 | 36 | 190 | 0.0 | 0.0 | 0.00 | 0.00 | 0.02 | 92 | 997.6 |
| 20260505080052 | 35 | 190 | 0.0 | 0.0 | 0.00 | 0.00 | 0.02 | 92 | 997.5 |
| 20260505074550 | 34 | 189 | 0.0 | 0.0 | 0.00 | 0.00 | 0.02 | 92 | 997.5 |
| 20260505073057 | 34 | 190 | 0.0 | 0.0 | 0.00 | 0.00 | 0.02 | 91 | 997.7 |
| 20260505071548 | 34 | 191 | 0.0 | 0.0 | 0.00 | 0.00 | 0.02 | 91 | 997.7 |
| 20260505070047 | 34 | 191 | 3.0 | 0.0 | 0.00 | 0.00 | 0.02 | 90 | 997.8 |
| 20260505064544 | 34 | 213 | 5.0 | 0.0 | 0.00 | 0.00 | 0.02 | 90 | 997.6 |
| 20260505063049 | 35 | 242 | 7.0 | 0.0 | 0.00 | 0.00 | 0.02 | 88 | 997.4 |
| 20260505061545 | 36 | 244 | 9.0 | 0.0 | 0.00 | 0.00 | 0.02 | 89 | 997.6 |
| 20260505060039 | 34 | 106 | 1.0 | 0.0 | 0.00 | 0.00 | 0.02 | 88 | 997.3 |